Location: Ostrava
(49.8330°N, 18.2830°E)
Time: 21:07:35
(UTC+02:00)

ISS - Visible Passes

Search period start: 20 May 2025 00:00
Search period end: 30 May 2025 00:00
Orbit: 416 x 419 km, 51.6° (Epoch: 20 May)

Date Brightness Start Highest point End Pass type
(mag) Time Alt. Az. Time Alt. Az. Time Alt. Az.
20 May -3.7 21:29:54 10° WNW 21:33:16 80° NNE 21:36:38 10° ESE visible
20 May -2.7 23:06:51 10° W 23:09:48 30° SW 23:09:48 30° SW visible
21 May -3.3 22:18:41 10° WNW 22:21:55 44° SSW 22:23:25 25° SSE visible
22 May -3.6 21:30:35 10° WNW 21:33:55 62° SSW 21:37:02 11° ESE visible
22 May -1.6 23:08:13 10° WSW 23:09:56 15° SW 23:09:56 15° SW visible
23 May -2.1 22:19:38 10° W 22:22:17 22° SW 22:23:35 17° S visible
24 May -2.6 21:31:19 10° W 21:34:20 31° SSW 21:37:15 11° SSE visible
26 May -1.5 21:32:29 10° W 21:34:32 15° SW 21:36:34 10° S visible
